PDT,Max TemperatureF,Mean TemperatureF,Min TemperatureF,Max Dew PointF,MeanDew PointF,Min DewpointF,Max Humidity, Mean Humidity, Min Humidity, Max Sea Level PressureIn, Mean Sea Level PressureIn, Min Sea Level PressureIn, Max VisibilityMiles, Mean VisibilityMiles, Min VisibilityMiles, Max Wind SpeedMPH, Mean Wind SpeedMPH, Max Gust SpeedMPH,PrecipitationIn, CloudCover, Events, WindDirDegrees
2013-5-1,66,50,33,8,2,-4,32,16,7,30.38,30.23,30.09,10,10,5,17,7,16,0.00,0,,20
2013-5-2,75,51,27,14,4,-4,44,18,5,30.49,30.26,30.12,10,10,10,10,3,22,0.00,1,,101
2013-5-3,82,60,37,20,10,0,43,18,5,30.18,30.00,29.88,10,10,10,17,5,20,0.00,1,,4
2013-5-4,75,60,48,29,23,14,38,25,13,29.94,29.80,29.68,10,10,6,20,8,44,0.00,2,Rain,1
2013-5-5,79,61,45,40,31,19,59,35,11,29.79,29.69,29.59,10,10,10,20,7,22,0.00,3,,286
2013-5-6,70,57,46,43,37,26,68,51,21,29.83,29.77,29.72,10,10,4,28,8,36,0.18,6,Rain,227
2013-5-7,62,55,48,46,42,38,83,66,43,30.00,29.88,29.84,10,10,10,16,10,22,0.02,7,Rain,266
2013-5-8,72,58,46,46,42,33,90,62,26,30.09,29.97,29.92,10,10,10,10,5,,0.00,6,Rain,293
2013-5-9,81,62,43,44,38,30,80,43,16,30.11,30.03,29.96,10,10,10,21,6,32,0.00,5,Rain-Thunderstorm,327
2013-5-10,86,66,48,44,35,26,66,36,12,30.21,30.10,30.04,10,10,10,13,7,18,0.00,2,,309
2013-5-11,88,70,51,38,28,16,54,25,8,30.27,30.12,30.05,10,10,10,10,5,20,0.00,2,,204
2013-5-12,91,72,53,39,33,27,48,25,10,30.24,30.08,29.99,10,10,10,13,5,,0.00,2,,235
2013-5-13,93,72,53,39,31,27,51,25,11,30.15,30.01,29.93,10,10,10,22,6,26,0.00,3,,244
2013-5-14,87,68,50,39,30,17,59,27,8,30.07,29.93,29.83,10,10,6,25,6,34,0.00,4,,243
2013-5-15,87,69,51,39,27,12,58,27,6,30.00,29.89,29.83,10,10,10,30,9,37,0.00,4,,256
2013-5-16,68,60,54,46,37,29,62,43,30,29.95,29.87,29.81,10,10,10,18,6,26,0.00,7,Rain,271
2013-5-17,73,58,43,41,33,22,80,44,15,29.95,29.86,29.81,10,10,10,22,5,30,0.00,3,,291
2013-5-18,75,57,39,36,30,24,57,36,15,30.12,29.98,29.92,10,10,10,20,5,26,0.00,1,,300
2013-5-19,73,60,48,39,29,16,66,36,12,30.23,30.08,30.03,10,10,9,14,9,22,0.00,2,,7
2013-5-20,77,57,39,28,21,10,45,27,8,30.25,30.05,29.91,10,10,10,10,5,,0.00,2,,348
2013-5-21,84,66,48,25,19,15,33,18,9,29.91,29.78,29.69,10,10,10,30,10,39,0.00,3,,227
2013-5-22,64,52,39,25,10,-3,45,22,7,29.86,29.78,29.71,10,10,10,21,10,30,0.00,2,,1
2013-5-23,66,47,28,21,12,1,43,24,10,29.93,29.82,29.75,10,10,10,15,4,28,0.00,2,,309
2013-5-24,80,56,34,22,13,3,59,24,6,29.99,29.86,29.76,10,10,10,16,4,21,0.00,1,,258
2013-5-25,78,58,41,27,19,15,47,21,10,29.99,29.86,29.79,10,10,10,20,5,23,0.00,3,,285
2013-5-26,79,61,44,30,23,12,39,24,8,30.00,29.91,29.85,10,10,10,20,7,33,0.00,1,,298
2013-5-27,71,56,42,44,32,20,64,39,15,29.98,29.91,29.83,10,10,10,23,7,29,0.00,4,Rain,237
2013-5-28,71,61,51,49,37,27,89,48,19,29.90,29.83,29.80,10,10,10,17,8,26,0.07,5,Rain,321
2013-5-29,77,62,48,39,33,24,63,37,15,29.86,29.79,29.55,10,10,10,18,7,25,0.00,3,Rain,295
2013-5-30,81,62,44,35,27,19,65,31,10,30.00,29.90,29.83,10,10,10,12,4,,0.00,1,,335
2013-5-31,82,64,45,25,20,12,40,21,7,30.16,30.04,29.99,10,10,10,10,5,,0.00,0,,5